Flag for Ireland Weather past 2 weeks in Dublin, Ireland

Now
50 °F

Partly sunny.


Feels Like: 45 °F
Forecast: 43 / 53 °F
Wind: 13 mph from South

Location: Dublin Airport

Current Time: Feb 28, 2015 at 1:27:32 PM

Latest Report: Feb 28, 2015 at 1:00 PM


Visibility: N/A

Pressure: 29.42 "Hg

Humidity: 71%

Dew point: 41 °F

Location of DublinLocation

Historic Weather in Dublin — Graph

°F

Dublin temperature yesterday

Maximum temperature yesterday: 46 °F (at 1:30 PM)
Minimum temperature yesterday: 34 °F (at 12:30 AM)
Average temperature yesterday: 41 °F

Past Weeks' High & Low Weather Summary

 TemperatureHumidityPressure
High54 °F (Feb 18, 11:30 AM)100% (Feb 13, 7:00 PM)30.60 "Hg (Feb 13, 7:00 PM)
Low28 °F (Feb 15, 5:30 AM)57% (Feb 26, 12:30 PM)28.88 "Hg (Feb 23, 3:00 PM)
Average42 °F85%29.77 "Hg
* Reported Feb 13 12:00 Noon — Feb 28 12:30 PM, Dublin, Weather by CustomWeather, © 2015

Note: Actual official high and low records may vary slightly from our data, if they occured in-between our weather recording intervals... More about our weather records

Advertising

Dublin weather history for previous 24 hours

 ConditionsComfort  
Time TempWeatherWind HumidityBarometerVisibility
12:30 PM
Sat, Feb 28
48 °FBroken clouds.17 mph76%29.47 "HgN/A
12:00 PM48 °FPartly sunny.12 mph76%29.50 "HgN/A
11:30 AM46 °FLight rain. Broken clouds.15 mph82%29.53 "HgN/A
11:00 AM46 °FLight rain. Broken clouds.13 mph82%29.56 "HgN/A
10:30 AM46 °FBroken clouds.12 mph82%29.59 "HgN/A
10:00 AM46 °FBroken clouds.15 mph76%29.59 "HgN/A
9:30 AM46 °FBroken clouds.13 mph82%29.59 "HgN/A
9:00 AM46 °FPartly sunny.12 mph82%29.59 "HgN/A
8:30 AM45 °FBroken clouds.12 mph87%29.62 "HgN/A
8:00 AM45 °FBroken clouds.12 mph87%29.62 "HgN/A
7:30 AM45 °FBroken clouds.12 mph87%29.65 "Hg5 mi
7:00 AM45 °FPartly cloudy.13 mph87%29.65 "Hg5 mi
6:30 AM46 °FPassing clouds.13 mph87%29.65 "HgN/A
6:00 AM46 °FPassing clouds.14 mph87%29.65 "HgN/A
5:00 AM46 °FPassing clouds.13 mph87%29.65 "HgN/A
4:30 AM46 °FPartly cloudy.16 mph87%29.65 "HgN/A
4:00 AM46 °FPartly cloudy.16 mph87%29.68 "HgN/A
3:30 AM46 °FPassing clouds.14 mph87%29.68 "HgN/A
3:00 AM46 °FPassing clouds.10 mph87%29.68 "HgN/A
2:30 AM46 °FPassing clouds.14 mph87%29.68 "HgN/A
2:00 AM46 °FPassing clouds.15 mph87%29.68 "HgN/A
1:30 AM46 °FPartly cloudy.14 mph87%29.68 "HgN/A
1:00 AM46 °FPartly cloudy.14 mph87%29.71 "HgN/A
12:30 AM46 °FLight rain. Partly cloudy.17 mph93%29.74 "HgN/A
12:00 AM46 °FPartly cloudy.10 mph87%29.74 "HgN/A
11:30 PM
Fri, Feb 27
46 °FPartly cloudy.14 mph87%29.74 "HgN/A
11:00 PM46 °FPartly cloudy.15 mph87%29.74 "HgN/A
10:30 PM46 °FPartly cloudy.16 mph82%29.74 "HgN/A
10:00 PM46 °FPartly cloudy.20 mph82%29.74 "HgN/A
9:30 PM45 °FPassing clouds.20 mph87%29.77 "HgN/A
9:00 PM45 °FPassing clouds.20 mph87%29.77 "HgN/A
8:30 PM45 °FPartly cloudy.21 mph81%29.77 "HgN/A
8:00 PM45 °FPassing clouds.18 mph81%29.80 "HgN/A
7:30 PM45 °FPassing clouds.18 mph81%29.80 "HgN/A
7:00 PM45 °FPartly cloudy.20 mph76%29.83 "HgN/A
6:30 PM45 °FPartly cloudy.20 mph76%29.83 "HgN/A
6:00 PM45 °FPartly cloudy.20 mph76%29.83 "HgN/A
5:30 PM45 °FPartly sunny.18 mph76%29.86 "HgN/A
5:00 PM45 °FBroken clouds.16 mph71%29.86 "HgN/A
4:30 PM45 °FPartly sunny.14 mph76%29.86 "HgN/A
4:00 PM45 °FBroken clouds.17 mph76%29.89 "HgN/A
3:30 PM45 °FPartly sunny.14 mph71%29.92 "HgN/A
3:00 PM46 °FPartly sunny.15 mph62%29.95 "HgN/A
2:30 PM46 °FBroken clouds.20 mph62%29.95 "HgN/A
2:00 PM46 °FBroken clouds.17 mph57%29.95 "HgN/A
1:30 PM46 °FBroken clouds.15 mph62%29.95 "HgN/A
1:00 PM45 °FBroken clouds.16 mph66%29.98 "HgN/A
Weather by CustomWeather, © 2015

See weather overviewHow to use our weather pages